Weather in Yemelevo

Russia / Mari El Republic     56°08′27″N   46°23′09″E
temp.,
°C
wind,
m/s
gust,
m/s
humid.,
%
clouds,
%
prec.,
mm/h
press.,
hPa
HPBL,
m
20 june, sun
sun2000:00+17w49910 0.0 1021138
03:00+17w35935 0.0 102280
06:00+20wnw35855 0.0 1022187
09:00+25wnw34652 0.0 1022602
12:00+28w23495 0.0 10221613
15:00+29sw44491 0.0 10211896
18:00+26sw597235 0.0 1020360
21:00+21wsw48865 0.0 1021122
21 june, mon
mon2100:00+19wsw22880 0.0 102122
03:00+18wsw22880 0.0 102214
06:00+21sw34810 0.0 1022156
09:00+26wsw34650 0.0 1022566
12:00+29sw34540 0.0 10221526
15:00+29sw55550 0.0 10211341
18:00+26sw58720 0.1 1020369
21:00+22wsw38840 0.1 1021120
22 june, tue
tue2200:00+20wsw22870 0.0 102230
03:00+19w22890 0.0 102220
06:00+22w24805 0.0 1022155
09:00+27w33629 0.0 1022575
12:00+29sw335099 0.0 10221724
15:00+30ssw444846 0.0 10211571
18:00+27sw58685 0.0 1021348
21:00+23wsw35820 0.0 102175
23 june, wed
wed2300:00+21w22870 0.0 102115
03:00+19wsw12880 0.0 102111
06:00+22w23800 0.0 1021152
09:00+27w34625 0.0 1021635
12:00+30wsw34464 0.0 10202338
15:00+31wsw344794 0.0 10191924
18:00+26sw48726 0.0 1019237
21:00+23wsw4878100 0.0 1019168
24 june, thu
thu2400:00+20nw117514 0.4 102011
03:00+19w368547 0.8 101990
06:00+21wsw228593 2.9 101957
09:00+26nw247143 3.4 1019482
12:00+30n245225 0.0 10191510
15:00+32nne35446 0.0 10182239
18:00+29e356436 0.0 1017126
21:00+21nw226429 1.4 101815